Location: Tucson
(32.2217°N, 110.9265°W)
Time: 01:20:07
(UTC-07:00)

Altair - All Passes

Search period start: 21 October 2021 00:00
Search period end: 31 October 2021 00:00
Orbit: 1502 x 1682 km, 47.2° (Epoch: 20 October)

Date Brightness Start Highest point End Pass type
(mag) Time Alt. Az. Time Alt. Az. Time Alt. Az.
21 Oct - 00:44:42 10° SSE 00:50:18 18° ESE 00:55:57 10° E visible
21 Oct - 02:44:38 10° SW 02:53:50 76° SE 03:03:21 10° NE visible
21 Oct - 04:50:20 10° W 04:59:10 44° NNW 05:08:21 10° NE visible
21 Oct - 06:57:48 10° WNW 07:06:15 33° N 07:14:57 10° ENE daylight
21 Oct - 09:03:28 10° NW 09:13:03 54° NNE 09:22:54 10° ESE daylight
21 Oct - 11:08:23 10° WNW 11:18:05 58° SW 11:27:57 10° SSE daylight
21 Oct - 13:18:11 10° W 13:21:35 12° WSW 13:25:01 10° SW daylight
22 Oct - 00:20:27 10° SSE 00:25:15 15° ESE 00:30:05 10° E night (unlit)
22 Oct - 02:19:33 10° SW 02:28:40 70° SE 02:38:07 10° NE visible
22 Oct - 04:24:58 10° W 04:33:52 46° NNW 04:43:06 10° NE visible
22 Oct - 06:32:28 10° WNW 06:40:51 33° N 06:49:30 10° ENE daylight
22 Oct - 08:38:16 10° NW 08:47:45 51° NNE 08:57:30 10° E daylight
22 Oct - 10:43:08 10° WNW 10:52:54 63° SW 11:02:52 10° SSE daylight
22 Oct - 12:51:48 10° W 12:56:30 14° WSW 13:01:13 10° SSW daylight
22 Oct - 23:56:27 10° SSE 00:00:13 13° ESE 00:04:00 10° E night (unlit)
23 Oct - 01:54:31 10° SW 02:03:33 64° SE 02:12:52 10° ENE visible
23 Oct - 03:59:39 10° W 04:08:34 49° NNW 04:17:52 10° NE visible
23 Oct - 06:07:08 10° WNW 06:15:28 32° N 06:24:05 10° ENE visible
23 Oct - 08:13:04 10° NW 08:22:26 48° NNE 08:32:04 10° E daylight
23 Oct - 10:17:54 10° NW 10:27:43 69° SW 10:37:45 10° SE daylight
23 Oct - 12:25:48 10° W 12:31:24 17° WSW 12:37:04 10° SSW daylight
23 Oct - 23:33:03 10° SE 23:35:10 11° ESE 23:37:17 10° ESE night (unlit)
24 Oct - 01:29:30 10° SSW 01:38:26 58° SE 01:47:36 10° ENE visible
24 Oct - 03:34:19 10° WSW 03:43:18 51° NNW 03:52:37 10° NE visible
24 Oct - 05:41:48 10° WNW 05:50:05 32° N 05:58:40 10° ENE visible
24 Oct - 07:47:53 10° NW 07:57:07 46° NNE 08:06:38 10° E daylight
24 Oct - 09:52:41 10° NW 10:02:32 74° SW 10:12:37 10° SE daylight
24 Oct - 11:59:58 10° W 12:06:18 19° SW 12:12:42 10° SSW daylight
25 Oct - 01:04:31 10° SSW 01:13:19 53° SE 01:22:20 10° ENE visible
25 Oct - 03:09:01 10° WSW 03:18:02 54° NNW 03:27:24 10° NE visible
25 Oct - 05:16:26 10° WNW 05:24:42 33° N 05:33:16 10° ENE visible
25 Oct - 07:22:41 10° NW 07:31:47 43° NNE 07:41:12 10° E daylight
25 Oct - 09:27:28 10° NW 09:37:20 80° SW 09:47:28 10° SE daylight
25 Oct - 11:34:18 10° W 11:41:12 21° SW 11:48:13 10° S daylight
26 Oct - 00:39:34 10° SSW 00:48:13 48° SE 00:57:03 10° ENE visible
26 Oct - 02:43:44 10° WSW 02:52:48 58° NNW 03:02:11 10° NE visible
26 Oct - 04:51:04 10° WNW 04:59:20 33° N 05:07:53 10° NE visible
26 Oct - 06:57:28 10° NW 07:06:28 41° NNE 07:15:45 10° E daylight
26 Oct - 09:02:16 10° NW 09:12:08 86° SW 09:22:16 10° SE daylight
26 Oct - 11:08:43 10° WNW 11:16:06 24° SW 11:23:37 10° S daylight
27 Oct - 00:14:39 10° SSW 00:23:07 44° SE 00:31:44 10° ENE visible
27 Oct - 02:18:28 10° WSW 02:27:33 62° NNW 02:36:58 10° NE visible
27 Oct - 04:25:42 10° WNW 04:33:58 33° N 04:42:30 10° NE visible
27 Oct - 06:32:16 10° NW 06:41:08 40° NNE 06:50:17 10° E daylight
27 Oct - 08:37:05 10° NW 08:46:55 88° NE 08:57:03 10° SE daylight
27 Oct - 10:43:12 10° WNW 10:50:59 27° SW 10:58:57 10° S daylight
27 Oct - 23:49:46 10° SSW 23:58:02 39° SE 00:06:25 10° ENE night (unlit)
28 Oct - 01:53:12 10° WSW 02:02:20 66° NNW 02:11:46 10° NE visible
28 Oct - 04:00:20 10° WNW 04:08:36 34° N 04:17:09 10° NE visible
28 Oct - 06:07:03 10° NW 06:15:47 38° NNE 06:24:49 10° E visible
28 Oct - 08:11:54 10° NW 08:21:42 83° NE 08:31:49 10° SE daylight
28 Oct - 10:17:44 10° WNW 10:25:52 30° SW 10:34:11 10° S daylight
28 Oct - 23:24:56 10° S 23:32:57 35° SE 23:41:04 10° ENE night (unlit)
29 Oct - 01:27:58 10° WSW 01:37:07 71° NW 01:46:33 10° NE visible
29 Oct - 03:34:57 10° WNW 03:43:15 35° NNW 03:51:50 10° NE visible
29 Oct - 05:41:49 10° NW 05:50:26 37° NNE 05:59:20 10° E visible
29 Oct - 07:46:44 10° NW 07:56:29 78° NE 08:06:33 10° ESE daylight
29 Oct - 09:52:19 10° WNW 10:00:45 33° SW 10:09:23 10° S daylight
29 Oct - 23:00:08 10° S 23:07:53 32° SE 23:15:41 10° ENE night (unlit)
30 Oct - 01:02:45 10° WSW 01:11:56 76° NW 01:21:21 10° NE visible
30 Oct - 03:09:34 10° WNW 03:17:55 36° NNW 03:26:31 10° NE visible
30 Oct - 05:16:34 10° NW 05:25:05 35° NNE 05:33:52 10° ENE visible
30 Oct - 07:21:34 10° NW 07:31:15 73° NE 07:41:15 10° ESE daylight
30 Oct - 09:26:57 10° WNW 09:35:38 37° SW 09:44:32 10° SSE daylight
30 Oct - 22:35:24 10° S 22:42:49 28° SE 22:50:16 10° ENE night (unlit)
